Location: Igri�s
(42.2144°N, 0.4320°W)
Time: 18:03:45
(UTC+00:00)

Cosmos 2219 Rocket - Pass Details

Date: 13 August 2020
Orbit: 826 x 848 km, 71.0° (Epoch: 18 September)

Event Time Altitude Azimuth Distance (km) Brightness Sun altitude
Rises 22:08:58 0° 343° (NNW) 3,416 6.5 -27.4°
Reaches altitude 10° 22:11:44 10° 354° (N) 2,479 5.4 -27.6°
Maximum altitude 22:16:43 31° 55° (NE) 1,465 3.4 -28.1°
Enters shadow 22:17:00 30° 61° (ENE) 1,469 3.4 -28.1°
